�N����,����,�~����,�C��,���x,�C��,����,���ϕ���,�ő�u�ԕ���,�ő厞����,���˗�,�I�_���x,�n�����x,�ő啗���N��,DTYPE
"20/06/28","00:10",0.0,23.9,86.3,997.4,310.0,0.8,2.1,333.6,0.00,21.5,25.2,"00:00:24",1
"20/06/28","00:20",0.0,23.9,87.2,997.4,333.8,1.0,1.6,330.1,0.00,21.7,25.1,"00:13:20",1
"20/06/28","00:30",0.0,23.8,87.7,997.4,310.6,0.7,1.4,333.0,0.00,21.7,25.1,"00:22:40",1
"20/06/28","00:40",0.0,23.7,88.2,997.2,269.5,0.5,0.9,313.9,0.00,21.7,25.2,"00:39:28",1
"20/06/28","00:50",0.0,23.7,88.6,997.0,297.9,0.6,1.1,319.4,0.00,21.7,25.0,"00:44:16",1
"20/06/28","01:00",0.0,23.5,89.0,997.0,287.8,0.3,0.8,306.5,0.00,21.6,25.0,"00:50:48",1
"20/06/28","01:10",0.0,23.6,89.3,997.2,313.1,0.7,1.7,323.0,0.00,21.8,25.1,"01:02:48",1
"20/06/28","01:20",0.0,23.5,89.5,997.0,305.7,0.5,1.2,0.4,0.00,21.7,25.0,"01:10:40",1
"20/06/28","01:30",0.0,23.5,89.8,997.0,302.9,0.3,0.9,327.0,0.00,21.8,24.9,"01:29:36",1
"20/06/28","01:40",0.0,23.4,90.0,997.0,284.1,0.6,1.1,267.4,0.00,21.7,24.8,"01:35:12",1
"20/06/28","01:50",0.0,23.5,90.3,997.0,313.3,0.5,1.1,317.6,0.00,21.9,24.8,"01:45:36",1
"20/06/28","02:00",0.0,23.5,90.6,996.7,356.7,0.6,1.2,349.8,0.00,21.9,24.8,"01:56:40",1
"20/06/28","02:10",0.0,23.3,90.8,996.5,274.2,0.5,1.1,344.4,0.00,21.8,24.7,"02:00:16",1
"20/06/28","02:20",0.0,23.2,90.9,996.5,241.3,0.2,0.6,242.8,0.00,21.7,24.6,"02:13:28",1
"20/06/28","02:30",0.0,23.3,91.2,996.0,219.0,0.1,0.5,240.3,0.00,21.8,24.7,"02:26:48",1
"20/06/28","02:40",0.0,23.3,91.3,996.3,265.4,0.5,1.1,303.2,0.00,21.8,24.5,"02:36:40",1
"20/06/28","02:50",0.0,23.4,91.5,996.0,320.3,0.7,1.2,336.3,0.00,22.0,24.6,"02:42:08",1
"20/06/28","03:00",0.0,23.5,91.7,996.5,333.6,0.7,1.6,336.5,0.00,22.1,24.6,"02:53:36",1
"20/06/28","03:10",0.0,23.4,91.8,996.3,330.8,0.8,1.7,325.0,0.00,22.0,24.6,"03:00:56",1
"20/06/28","03:20",0.0,23.4,92.1,996.3,344.4,0.8,2.8,347.0,0.00,22.1,24.6,"03:18:40",1
"20/06/28","03:30",0.0,23.4,92.3,996.3,4.8,0.8,1.7,340.2,0.00,22.1,24.5,"03:20:48",1
"20/06/28","03:40",0.0,23.3,92.5,996.5,338.7,0.6,1.1,340.1,0.00,22.1,24.3,"03:33:04",1
"20/06/28","03:50",0.0,23.3,92.6,996.0,335.2,0.3,1.1,333.1,0.00,22.1,24.4,"03:46:48",1
"20/06/28","04:00",0.0,23.3,92.8,996.0,330.4,0.8,1.4,6.0,0.00,22.1,24.5,"03:55:04",1
"20/06/28","04:10",0.0,23.0,92.9,995.8,355.7,0.8,1.7,356.1,0.00,21.8,24.5,"04:00:24",1
"20/06/28","04:20",0.0,22.7,93.2,995.8,345.3,1.0,1.9,350.7,0.00,21.6,24.2,"04:13:44",1
"20/06/28","04:30",0.0,22.5,93.3,995.8,261.5,0.5,1.0,323.6,0.00,21.4,24.2,"04:20:32",1
"20/06/28","04:40",0.0,22.6,93.4,996.0,156.3,0.6,1.3,220.7,0.00,21.5,24.5,"04:32:24",1
"20/06/28","04:50",0.0,22.5,93.5,995.8,357.2,0.6,1.7,349.8,0.00,21.4,24.1,"04:42:40",1
"20/06/28","05:00",0.0,22.6,93.6,995.6,296.0,0.7,1.3,318.7,0.00,21.6,24.2,"04:57:36",1
"20/06/28","05:10",0.0,22.5,93.8,995.6,244.4,0.6,1.1,217.8,0.00,21.5,24.5,"05:06:24",1
"20/06/28","05:20",0.0,22.4,93.8,995.8,314.6,0.3,0.9,335.4,0.00,21.4,24.2,"05:14:48",1
"20/06/28","05:30",0.0,22.5,94.0,995.3,357.1,0.6,1.2,2.7,0.00,21.5,24.2,"05:25:20",1
"20/06/28","05:40",0.0,22.4,94.0,996.0,292.2,0.5,1.0,350.1,0.00,21.4,24.3,"05:30:24",1
"20/06/28","05:50",0.0,22.5,94.1,996.3,21.7,0.2,1.0,347.5,0.00,21.5,24.3,"05:45:04",1
"20/06/28","06:00",0.0,22.5,94.2,996.0,352.9,0.8,1.7,338.8,0.00,21.6,24.2,"05:58:48",1
"20/06/28","06:10",0.0,22.4,94.2,996.3,296.7,0.3,1.3,317.7,0.00,21.5,24.2,"06:00:16",1
"20/06/28","06:20",0.0,22.5,94.3,996.3,321.1,0.3,1.2,340.5,0.00,21.6,24.0,"06:16:48",1
"20/06/28","06:30",0.0,22.4,94.4,996.0,303.9,0.5,0.9,4.9,0.00,21.5,24.2,"06:22:00",1
"20/06/28","06:40",0.0,22.5,94.4,996.3,286.0,0.5,1.0,342.3,0.00,21.6,24.1,"06:36:56",1
"20/06/28","06:50",0.0,22.6,94.4,996.3,319.5,0.3,1.0,302.8,0.00,21.7,23.9,"06:49:20",1
"20/06/28","07:00",0.0,22.6,94.5,996.3,340.6,0.7,1.6,348.6,0.00,21.7,24.0,"06:51:52",1
"20/06/28","07:10",0.0,22.6,94.6,996.3,354.5,1.0,1.7,2.2,0.01,21.7,24.1,"07:06:16",1
"20/06/28","07:20",0.0,22.7,94.6,996.0,337.7,1.1,1.7,341.9,0.02,21.8,24.1,"07:12:32",1
"20/06/28","07:30",0.0,22.4,94.8,995.8,342.3,1.0,2.0,330.4,0.03,21.6,23.9,"07:22:24",1
"20/06/28","07:40",0.0,22.3,94.8,995.8,314.5,0.6,1.1,24.3,0.02,21.5,24.0,"07:32:00",1
"20/06/28","07:50",0.0,22.2,95.0,996.0,321.6,1.1,1.8,341.9,0.03,21.4,23.9,"07:45:12",1
"20/06/28","08:00",0.0,22.4,95.0,995.6,333.4,0.3,1.2,346.5,0.04,21.6,24.2,"07:51:20",1
"20/06/28","08:10",0.0,22.5,95.0,995.6,336.5,0.6,1.2,339.1,0.05,21.7,24.1,"08:07:12",1
"20/06/28","08:20",0.0,22.6,94.9,995.6,12.1,0.5,1.1,1.4,0.04,21.8,24.3,"08:12:00",1
"20/06/28","08:30",0.0,22.5,95.2,995.6,342.8,0.7,1.4,341.2,0.07,21.7,24.1,"08:23:20",1
"20/06/28","08:40",0.0,22.7,95.1,995.6,319.8,0.8,1.4,351.4,0.10,21.9,24.1,"08:38:32",1
"20/06/28","08:50",0.0,23.0,95.0,995.8,333.8,1.0,2.1,344.5,0.10,22.2,24.0,"08:48:00",1
"20/06/28","09:00",0.0,23.2,95.2,995.6,318.6,1.1,2.2,341.4,0.11,22.4,24.3,"08:55:04",1
"20/06/28","09:10",0.0,23.6,95.3,995.6,324.3,1.0,1.4,343.4,0.21,22.8,24.4,"09:00:16",1
"20/06/28","09:20",0.0,23.9,94.9,995.3,89.2,0.5,1.3,111.5,0.21,23.1,24.5,"09:17:44",1
"20/06/28","09:30",0.0,24.0,94.8,995.6,315.4,1.1,2.2,323.1,0.20,23.2,24.5,"09:22:32",1
"20/06/28","09:40",0.0,24.1,94.1,995.1,254.7,0.8,2.4,236.7,0.15,23.1,24.7,"09:38:56",1
"20/06/28","09:50",0.0,23.7,93.7,995.6,244.8,1.5,3.1,234.2,0.11,22.7,24.9,"09:43:04",1
"20/06/28","10:00",0.0,23.6,92.6,995.3,226.8,1.6,3.1,221.7,0.19,22.4,24.8,"09:50:16",1
"20/06/28","10:10",0.0,24.9,92.8,995.1,238.6,1.3,2.5,229.4,0.44,23.7,24.9,"10:05:44",1
"20/06/28","10:20",0.0,25.6,91.2,994.6,292.4,1.1,2.2,301.3,0.43,24.1,25.1,"10:12:32",1
"20/06/28","10:30",0.0,25.9,89.7,993.9,250.4,1.0,3.2,232.5,0.26,24.1,25.3,"10:23:44",1
"20/06/28","10:40",0.0,25.8,87.1,994.1,306.5,1.0,3.4,347.4,0.14,23.5,25.6,"10:36:16",1
"20/06/28","10:50",0.0,25.8,85.0,993.7,271.1,1.0,2.4,227.6,0.17,23.1,25.5,"10:49:44",1
"20/06/28","11:00",0.0,26.1,83.0,993.4,265.0,1.2,2.6,250.4,0.24,23.0,25.8,"10:52:08",1
"20/06/28","11:10",0.0,26.3,81.4,993.4,291.0,1.2,2.7,346.1,0.23,22.9,25.8,"11:05:28",1
"20/06/28","11:20",0.0,26.9,80.1,993.7,305.0,1.1,2.5,305.3,0.45,23.2,26.0,"11:14:24",1
"20/06/28","11:30",0.0,27.5,78.3,993.9,302.4,1.2,4.2,343.4,0.43,23.4,25.9,"11:25:44",1
"20/06/28","11:40",0.0,28.0,76.5,994.1,257.3,1.3,3.5,342.7,0.50,23.5,26.2,"11:30:32",1
"20/06/28","11:50",0.0,28.4,74.3,994.1,257.1,1.2,3.6,227.1,0.31,23.4,26.6,"11:44:56",1
"20/06/28","12:00",0.0,28.2,73.5,994.6,282.1,1.3,4.1,222.0,0.34,23.1,26.8,"11:57:20",1
"20/06/28","12:10",0.0,28.1,74.2,994.4,284.0,1.1,2.7,210.8,0.25,23.1,26.6,"12:02:42",1
"20/06/28","12:20",0.0,27.8,73.4,994.4,268.4,1.1,3.6,228.6,0.15,22.6,26.7,"12:16:40",1
"20/06/28","12:30",0.0,27.4,74.5,994.1,290.3,1.2,3.9,311.3,0.13,22.5,26.9,"12:24:24",1
"20/06/28","12:40",0.0,27.9,76.3,993.9,280.8,1.2,3.4,359.3,0.40,23.4,26.9,"12:30:24",1
"20/06/28","12:50",0.0,28.8,73.6,993.9,272.6,1.3,2.6,300.9,0.60,23.7,26.7,"12:41:20",1
"20/06/28","13:00",0.0,29.2,69.3,994.6,248.4,1.0,2.6,223.1,0.43,23.0,26.8,"12:57:12",1
"20/06/28","13:10",0.0,28.7,69.4,993.7,280.1,1.2,3.1,334.2,0.17,22.6,27.0,"13:07:52",1
"20/06/28","13:20",0.0,28.5,70.6,993.7,312.8,1.0,2.2,295.2,0.24,22.7,27.2,"13:10:16",1
"20/06/28","13:30",0.0,28.5,69.0,993.7,356.8,1.2,3.2,341.3,0.17,22.3,27.2,"13:22:00",1
"20/06/28","13:40",0.0,28.3,69.7,993.7,351.7,1.2,3.5,347.8,0.11,22.3,27.2,"13:38:24",1
"20/06/28","13:50",0.0,28.2,70.7,993.4,353.8,1.3,2.9,343.9,0.18,22.4,27.0,"13:41:44",1
"20/06/28","14:00",0.0,28.5,70.5,993.2,348.8,1.0,2.1,343.2,0.19,22.7,27.1,"13:54:08",1
"20/06/28","14:10",0.0,28.6,71.0,993.4,357.1,1.2,2.6,342.1,0.25,22.9,27.0,"14:05:28",1
"20/06/28","14:20",0.0,28.3,69.4,993.4,6.4,1.5,3.3,6.1,0.24,22.2,27.0,"14:10:48",1
"20/06/28","14:30",0.0,27.8,71.7,993.4,2.0,1.5,3.9,348.5,0.07,22.3,27.1,"14:24:16",1
"20/06/28","14:40",0.0,27.2,76.2,992.7,347.9,1.2,3.4,332.8,0.14,22.7,27.1,"14:36:00",1
"20/06/28","14:50",0.0,27.1,77.7,992.7,346.2,1.3,3.1,345.8,0.18,22.9,27.2,"14:49:44",1
"20/06/28","15:00",0.0,27.4,77.3,993.2,335.4,1.8,5.0,345.9,0.31,23.1,27.1,"14:50:02",1
"20/06/28","15:10",0.0,27.1,75.5,993.2,333.7,2.7,5.4,331.1,0.24,22.4,27.0,"15:06:48",1
"20/06/28","15:20",0.0,26.9,74.0,993.4,328.2,3.1,6.3,345.7,0.19,21.9,27.0,"15:19:36",1
"20/06/28","15:30",0.0,27.4,72.4,993.2,338.2,3.5,7.0,342.3,0.42,22.0,27.1,"15:22:56",1
"20/06/28","15:40",0.0,27.5,70.4,993.4,341.6,3.4,6.4,331.2,0.32,21.7,27.1,"15:38:32",1
"20/06/28","15:50",0.0,27.3,70.2,993.9,336.0,3.9,6.6,318.4,0.30,21.4,27.1,"15:40:56",1
"20/06/28","16:00",0.0,27.1,69.9,993.4,341.1,3.4,6.7,339.4,0.23,21.2,27.2,"15:57:20",1
"20/06/28","16:10",0.0,26.5,71.0,994.1,340.2,3.1,6.7,329.7,0.12,20.9,26.9,"16:08:56",1
"20/06/28","16:20",0.0,26.5,71.6,993.9,345.2,3.1,6.0,309.2,0.21,21.0,26.7,"16:14:24",1
"20/06/28","16:30",0.0,27.0,70.8,994.1,347.7,1.8,3.7,5.6,0.24,21.3,26.9,"16:25:04",1
"20/06/28","16:40",0.0,26.9,69.7,993.7,343.3,2.1,4.8,326.5,0.15,20.9,26.7,"16:37:28",1
"20/06/28","16:50",0.0,26.3,70.9,994.4,333.8,2.8,5.6,306.3,0.10,20.6,26.9,"16:46:32",1
"20/06/28","17:00",0.0,26.0,72.1,994.6,350.8,2.8,6.4,333.9,0.05,20.6,26.7,"16:54:16",1
"20/06/28","17:10",0.0,25.8,72.8,994.6,8.8,2.1,4.3,325.2,0.05,20.6,26.9,"17:00:56",1
"20/06/28","17:20",0.0,25.6,73.0,994.1,348.4,2.6,5.1,348.0,0.05,20.4,26.8,"17:18:32",1
"20/06/28","17:30",0.0,25.6,71.7,994.8,353.2,2.2,5.2,350.9,0.04,20.2,26.6,"17:24:08",1
"20/06/28","17:40",0.0,25.2,71.7,994.8,344.4,2.6,6.0,356.1,0.04,19.8,26.4,"17:30:24",1
"20/06/28","17:50",0.0,25.0,71.2,994.8,345.1,2.8,5.2,339.1,0.03,19.5,26.4,"17:43:12",1
"20/06/28","18:00",0.0,25.1,70.2,995.3,358.6,2.1,4.3,3.9,0.02,19.3,26.3,"17:53:04",1
"20/06/28","18:10",0.0,25.1,70.3,995.3,345.0,2.1,4.5,340.8,0.02,19.4,26.1,"18:00:56",1
"20/06/28","18:20",0.0,24.9,69.7,995.8,335.9,1.7,3.9,352.3,0.02,19.0,26.0,"18:18:00",1
"20/06/28","18:30",0.0,24.5,69.2,996.0,323.7,2.3,5.8,336.6,0.01,18.5,26.0,"18:23:44",1
"20/06/28","18:40",0.0,24.1,69.4,996.3,329.9,3.6,6.3,343.2,0.00,18.2,25.9,"18:30:48",1
"20/06/28","18:50",0.0,23.8,70.5,996.5,321.7,2.6,4.9,329.7,0.00,18.2,25.7,"18:46:32",1
"20/06/28","19:00",0.0,23.6,71.5,996.5,322.5,2.2,3.9,305.5,0.00,18.2,25.5,"18:52:56",1
"20/06/28","19:10",0.0,23.5,72.6,996.5,333.2,2.5,4.2,325.6,0.00,18.3,25.6,"19:02:56",1
"20/06/28","19:20",0.0,23.3,73.6,996.7,327.0,2.1,4.5,346.0,0.00,18.4,25.4,"19:17:44",1
"20/06/28","19:30",0.0,23.0,74.1,997.4,329.1,2.3,4.8,346.5,0.00,18.2,25.3,"19:26:08",1
"20/06/28","19:40",0.0,22.9,74.6,997.2,324.3,1.6,2.8,314.3,0.00,18.2,25.4,"19:31:12",1
"20/06/28","19:50",0.0,22.7,75.9,997.2,337.6,1.3,2.5,356.7,0.00,18.3,25.1,"19:42:56",1
"20/06/28","20:00",0.0,22.3,77.1,997.4,321.9,1.3,2.4,319.6,0.00,18.1,25.1,"19:53:44",1
"20/06/28","20:10",0.0,22.1,78.0,997.4,341.8,1.0,1.6,312.1,0.00,18.1,25.1,"20:00:16",1
"20/06/28","20:20",0.0,22.0,78.7,997.7,335.6,1.1,2.0,340.8,0.00,18.2,24.9,"20:17:44",1
"20/06/28","20:30",0.0,21.9,78.4,997.9,308.2,1.6,3.6,334.9,0.00,18.0,24.8,"20:28:40",1
"20/06/28","20:40",0.0,22.1,78.1,998.4,328.5,1.5,2.2,328.8,0.00,18.1,24.6,"20:31:36",1
"20/06/28","20:50",0.0,21.7,78.5,998.6,320.5,1.7,2.9,325.5,0.00,17.8,24.5,"20:49:20",1
"20/06/28","21:00",0.0,21.7,78.7,998.9,313.8,1.2,2.2,344.8,0.00,17.9,24.6,"20:52:16",1
"20/06/28","21:10",0.0,21.5,79.2,998.6,318.1,1.8,3.4,347.9,0.00,17.8,24.2,"21:02:24",1
"20/06/28","21:20",0.0,21.9,78.3,998.9,327.4,2.3,3.5,332.1,0.00,18.0,24.3,"21:17:36",1
"20/06/28","21:30",0.0,21.8,77.9,998.9,330.3,1.6,3.5,334.2,0.00,17.8,24.2,"21:21:12",1
"20/06/28","21:40",0.0,21.6,78.2,999.1,333.2,0.8,2.2,16.1,0.00,17.7,24.3,"21:34:32",1
"20/06/28","21:50",0.0,21.5,79.0,999.3,348.9,1.2,2.1,348.9,0.00,17.7,24.2,"21:44:40",1
"20/06/28","22:00",0.0,21.1,80.0,999.3,317.1,1.2,3.2,333.2,0.00,17.6,23.9,"21:56:48",1
"20/06/28","22:10",0.0,20.7,81.3,999.6,35.8,0.8,1.8,343.5,0.00,17.4,24.0,"22:01:44",1
"20/06/28","22:20",0.0,20.4,82.1,999.3,318.7,0.5,0.9,354.5,0.00,17.3,24.0,"22:12:24",1
"20/06/28","22:30",0.0,20.3,83.4,999.6,356.2,1.0,2.0,324.4,0.00,17.4,23.8,"22:20:56",1
"20/06/28","22:40",0.0,20.1,84.1,999.6,341.1,0.7,1.8,306.1,0.00,17.4,23.7,"22:32:32",1
"20/06/28","22:50",0.0,20.0,84.6,999.6,322.8,0.7,1.8,352.9,0.00,17.4,23.7,"22:40:32",1
"20/06/28","23:00",0.0,19.6,85.1,1000.3,281.4,0.8,1.6,331.4,0.00,17.1,23.6,"22:56:48",1
"20/06/28","23:10",0.0,19.6,85.8,999.8,328.4,1.1,1.9,335.0,0.00,17.2,23.6,"23:08:00",1
"20/06/28","23:20",0.0,19.5,86.3,1000.0,302.6,1.0,1.8,326.1,0.00,17.2,23.5,"23:12:08",1
"20/06/28","23:30",0.0,19.3,86.9,1000.0,313.8,0.8,1.4,321.7,0.00,17.1,23.4,"23:21:28",1
"20/06/28","23:40",0.0,19.1,87.3,999.8,280.8,0.8,1.3,320.9,0.00,17.0,23.3,"23:30:16",1
"20/06/28","23:50",0.0,19.1,87.8,1000.0,318.5,1.1,2.0,318.7,0.00,17.1,23.2,"23:48:56",1
"20/06/28","24:00",0.0,19.1,88.2,1000.5,323.8,1.3,2.1,321.7,0.00,17.1,23.2,"23:57:44",1
